Regional Weather Roundup
Issued by NWS Charleston, SC

Current Version | Previous Version | Graphics & Text | Print | Product List | Glossary On
Versions: 1 2 3 4 5 6 7 8 9 10 11 12 13 14 15 16 17 18 19 20 21 22 23 24 25 26 27 28 29 30 31 32 33 34 35 36 37 38 39 40 41 42 43 44 45 46 47 48 49 50
000 ASUS42 KCHS 171610 RWRCHS REGIONAL WEATHER ROUNDUP NATIONAL WEATHER SERVICE CHARLESTON SC 1100 AM EST WED DEC 17 2014 NOTE: "FAIR" INDICATES FEW OR NO CLOUDS BELOW 12,000 FEET WITH NO SIGNIFICANT WEATHER AND/OR OBSTRUCTIONS TO VISIBILITY. NOT ALL STATIONS ARE QUALITY CONTROLLED BY THE NATIONAL WEATHER SERVICE. USE DATA WITH CAUTION...ESPECIALLY DEWPOINT OBSERVATIONS. SCZ027-030-031-034>040-042>050-171700- ...SOUTHEAST SOUTH CAROLINA... CITY SKY/WX TMP DP RH WIND PRES REMARKS N CHARLESTON MOSUNNY 58 40 51 N5 30.16S WATERFRONT PRK N/A 57 N/A N/A N7 N/A MOUNT PLEASANT FAIR 57 43 58 NW3 30.15F PINOPOLIS N/A 52 43 71 CALM 30.09R MONCKS CORNER FAIR 55 41 58 N3 30.16S SUMMERVILLE FAIR 55 43 62 CALM 30.17S BEAUFORT MCAS MOSUNNY 57 41 55 VRB3 30.17S BEAUFORT ARPT FAIR 54 43 66 W3 30.16F HILTON HEAD IS SUNNY 55 43 62 NW5 30.18 WALTERBORO MOSUNNY 55 37 50 CALM 30.17S ALLENDALE FAIR 54 41 62 CALM 30.17S ...SOUTHERN MIDLANDS AND PEE DEE... CITY SKY/WX TMP DP RH WIND PRES REMARKS GEORGETOWN NOT AVBL KINGSTREE NOT AVBL ORANGEBURG SUNNY 54 39 57 CALM 30.17S BARNWELL FAIR 54 43 66 CALM 30.18S AIKEN FAIR 52 41 66 NW3 30.20S MANNING NOT AVBL COLUMBIA PTSUNNY 56 40 55 CALM 30.17S SUMTER SUNNY 55 39 54 W2 30.14F FLORENCE SUNNY 57 39 51 N6 30.14F MYRTLE BEACH NOT AVBL N MYRTLE BEACH SUNNY 57 41 55 NW6 30.13F $$ GAZ063-065-086>088-099>101-113>116-118-119-134>141-150-171700- ...SOUTHEAST GEORGIA... CITY SKY/WX TMP DP RH WIND PRES REMARKS SAVANNAH ARPT PTSUNNY 56 40 55 NW3 30.18S HUNTER AAF SUNNY 55 41 58 VRB2 30.16S FORT STEWART SUNNY 56 40 56 VRB1 30.18R STATESBORO SUNNY 53 42 65 NW5 30.18S SYLVANIA SUNNY 55 43 64 CALM 30.19S CLAXTON FAIR N/A N/A N/A NW5 30.19S ...CSRA...CENTRAL AND FAR SOUTHEAST GEORGIA... CITY SKY/WX TMP DP RH WIND PRES REMARKS THOMSON SUNNY 52 42 69 CALM 30.23F AUGUSTA-BUSH SUNNY 52 39 61 NW3 30.19S AUGUSTA-DANIEL SUNNY 52 39 61 VRB5 30.19R SWAINSBORO FAIR 54 45 71 W3 30.20S VIDALIA SUNNY 54 41 62 NW5 30.20S EASTMAN FAIR 53 42 65 N3 30.23F HAZLEHURST FAIR 54 43 66 N5 30.19F ALMA SUNNY 54 39 57 W5 30.20S WAYCROSS SUNNY 56 44 62 CALM 30.21R JESUP FAIR 57 45 62 CALM 30.20S BAXLEY FAIR 54 41 62 NW3 30.19S BRUNSWICK SUNNY 55 41 58 CALM 30.20F SAINT SIMONS SUNNY 55 41 59 CALM 30.19F $$ SCZ027-028-034-036>038-045-046-048>050-GAZ119-141-171700- ...LAKE AND SUPPLEMENTAL COASTAL OBSERVATIONS... STATION/POSITION TIME TEMP WIND PRES WAVE SWELL AIR SEA DIR/SP/G HT/PER HT/PER/DIR (UTC) (F) (DEG/KT/KT) (MB) (FT/S) (FT/S/D) UPR LAKE MARION NOT AVBL WINYAH BAY 1500 51 330/ 5 1021.0S LAKE MURRAY 1500 49 260/ 2/ 2 1021.0R ACE BASIN NERRS 1500 52 340/ 2 1021.0S FORT PULASKI 1600 51 56 280/ 7/ 8 1022.0S SAPELO ISLAND NOT AVBL $$ ANZ835-935-AMZ111-154-330-350-352-354-370-450-454-472-171700- ...C-MAN AND BUOY OBSERVATIONS... STATION/POSITION TIME TEMP WIND PRES WAVE SWELL AIR SEA DIR/SP/G HT/PER HT/PER/DIR (UTC) (F) (DEG/KT/KT) (MB) (FT/S) (FT/S/D) BUOY 41004 1600 59 73 10/ 8/ 12 1020.7F 3/ 4 2/ 4 BUOY 41008 1600 51 58 330/ 4/ 6 1022.2F 2/11 2/110/11 FOLLY BEACH CMAN 1500 54 330/ 3/ 5 1021.7R CAPERS NEARSHORE 1500 53 360/ 8/ 10 N/A FRIPP NEARSHORE NOT AVBL STATION/POSITION TIME TEMP WIND PRES WAVE SWELL AIR SEA DIR/SP/G HT/PER HT/PER/DIR (UTC) (F) (DEG/KT/KT) (MB) (FT/S) (FT/S/D) 5E ST. MARYS GA 1600 61 N/A 2/11 2/110/11 FRYING PAN BUOY 1600 56 64 350/ 12/ 16 1020.8F 3/ 6 2/200/ 6 BUOY 41025 1600 54 1018.8R 4/ 8 CAPE LOOKOUT NC 1500 53 310/ 7/ 9 1019.5R BUOY 41002 1458 69 73 300/ 14/ 16 1019.2S 9/ 8 7/290/ 8 BUOY 41010 1600 72 76 290/ 14/ 19 1021.6R 5/ 6 2/120/11 ST AUGUSTINE FL 1600 56 10/ 6/ 6 1023.4F $$

USA.gov is the U.S. government's official web portal to all federal, state and local government web resources and services.